Weather History for North Bend, OR

Change the Weather History Date:

Saturday, November 23, 2013

  Actual Average Record
Temperature  
Mean Temperature 55 °F 47 °F  
Max Temperature 70 °F 53 °F 76 °F (1933)
Min Temperature 39 °F 42 °F 26 °F (1929)
Degree Days  
Heating Degree Days 10 18  
Month to date heating degree days 332 359  
Since 1 July heating degree days 993 1325  
Cooling Degree Days 0 0  
Month to date cooling degree days 0 0  
Year to date cooling degree days 13 2  
Growing Degree Days 4 (Base 50)    
Moisture  
Dew Point 30 °F    
Average Humidity 45    
Maximum Humidity 65    
Minimum Humidity 24    
Precipitation  
Precipitation 0.00 in 0.38 in 2.86 in (1961)
Month to date precipitation 2.69 7.54  
Year to date precipitation 27.33 51.09  
Sea Level Pressure  
Sea Level Pressure 30.11 in    
Wind  
Wind Speed 10 mph (ESE)    
Max Wind Speed 22 mph    
Max Gust Speed 24 mph    
Visibility 10 miles    
Events      
T = Trace of Precipitation, MM = Missing Value Source: NWS Daily Summary

Daily Weather History Graph

Daily Weather History Graph

Search for Another Location

Airport:

Trip Planner

Search our weather history database for the weather conditions in past years. The results will help you decide how hot, cold, wet, or windy it might be!

Date:

Astronomy

Nov. 23, 2013 Rise Set
Actual Time 7:20 AM PST 4:45 PM PST
Civil Twilight 6:49 AM PST 5:17 PM PST
Nautical Twilight 6:14 AM PST 5:52 PM PST
Astronomical Twilight 5:40 AM PST 6:26 PM PST
Moon 10:23 PM PST (11/23) 11:37 AM PST (11/23)
Length of Visible Light 10h 27m
Length of Day
9h 24m
Waning Gibbous, 68% of the Moon is Illuminated
Nov 23
Waning Gibbous
Nov 25
Last Quarter
Dec 2
New
Dec 9
First Quarter
Dec 17
Full

Hourly Weather History & Observations

Time (PST) Temp. Windchill Dew Point Humidity Pressure Visibility Wind Dir Wind Speed Gust Speed Precip Events Conditions
12:15 AM 48.2 °F - 26.6 °F 43% 30.23 in 10.0 mi East 9.2 mph - N/A   Clear
12:35 AM 48.2 °F - 28.4 °F 46% 30.22 in 10.0 mi ENE 6.9 mph - N/A   Clear
12:55 AM 48.2 °F - 28.4 °F 46% 30.22 in 10.0 mi East 9.2 mph 16.1 mph N/A   Clear
1:15 AM 48.2 °F - 26.6 °F 43% 30.21 in 10.0 mi East 13.8 mph - N/A   Clear
1:35 AM 48.2 °F - 26.6 °F 43% 30.22 in 10.0 mi East 11.5 mph - N/A   Clear
1:55 AM 48.2 °F - 26.6 °F 43% 30.21 in 10.0 mi East 9.2 mph - N/A   Clear
2:15 AM 46.4 °F 41.9 °F 32.0 °F 57% 30.21 in 10.0 mi ENE 9.2 mph - N/A   Clear
2:35 AM 44.6 °F 40.7 °F 35.6 °F 71% 30.21 in 10.0 mi NE 6.9 mph - N/A   Clear
2:55 AM 46.4 °F 41.5 °F 28.4 °F 50% 30.20 in 10.0 mi ENE 10.4 mph - N/A   Clear
3:15 AM 48.2 °F - 26.6 °F 43% 30.20 in 10.0 mi East 10.4 mph - N/A   Clear
3:35 AM 44.6 °F 42.2 °F 28.4 °F 53% 30.20 in 10.0 mi South 4.6 mph - N/A   Clear
3:55 AM 41.0 °F 39.0 °F 28.4 °F 61% 30.19 in 10.0 mi SSE 3.5 mph - N/A   Clear
4:15 AM 39.2 °F - 28.4 °F 65% 30.19 in 10.0 mi Calm Calm - N/A   Clear
4:35 AM 42.8 °F 40.1 °F 28.4 °F 57% 30.19 in 10.0 mi South 4.6 mph - N/A   Clear
4:55 AM 42.8 °F - 28.4 °F 57% 30.18 in 10.0 mi Calm Calm - N/A   Clear
5:15 AM 39.2 °F 37.0 °F 28.4 °F 65% 30.18 in 10.0 mi SSE 3.5 mph - N/A   Clear
5:35 AM 41.0 °F 38.0 °F 28.4 °F 61% 30.18 in 10.0 mi SE 4.6 mph - N/A   Clear
5:55 AM 41.0 °F 36.4 °F 28.4 °F 61% 30.17 in 10.0 mi ESE 6.9 mph - N/A   Clear
6:15 AM 44.6 °F 40.7 °F 28.4 °F 53% 30.17 in 10.0 mi SE 6.9 mph - N/A   Clear
6:35 AM 42.8 °F 38.6 °F 28.4 °F 57% 30.17 in 10.0 mi SE 6.9 mph - N/A   Clear
6:55 AM 46.4 °F 40.7 °F 26.6 °F 46% 30.17 in 10.0 mi ESE 12.7 mph 18.4 mph N/A   Clear
7:15 AM 46.4 °F 42.9 °F 28.4 °F 50% 30.17 in 10.0 mi ESE 6.9 mph - N/A   Clear
7:35 AM 42.8 °F 41.1 °F 30.2 °F 61% 30.17 in 10.0 mi East 3.5 mph - N/A   Clear
7:55 AM 46.4 °F 41.5 °F 28.4 °F 50% 30.17 in 10.0 mi East 10.4 mph - N/A   Clear
8:15 AM 51.8 °F - 24.8 °F 35% 30.17 in 10.0 mi East 13.8 mph 18.4 mph N/A   Clear
8:35 AM 51.8 °F - 24.8 °F 35% 30.17 in 10.0 mi East 15.0 mph 19.6 mph N/A   Clear
8:55 AM 53.6 °F - 24.8 °F 33% 30.16 in 10.0 mi East 13.8 mph - N/A   Clear
9:15 AM 53.6 °F - 26.6 °F 35% 30.16 in 10.0 mi ESE 9.2 mph - N/A   Clear
9:35 AM 55.4 °F - 26.6 °F 33% 30.15 in 10.0 mi ESE 11.5 mph 19.6 mph N/A   Clear
9:55 AM 55.4 °F - 30.2 °F 38% 30.15 in 10.0 mi SE 8.1 mph - N/A   Clear
10:15 AM 57.2 °F - 28.4 °F 33% 30.15 in 10.0 mi ESE 12.7 mph 17.3 mph N/A   Clear
10:35 AM 59.0 °F - 26.6 °F 29% 30.14 in 10.0 mi ESE 15.0 mph - N/A   Clear
10:55 AM 59.0 °F - 28.4 °F 31% 30.13 in 10.0 mi East 17.3 mph 24.2 mph N/A   Clear
11:15 AM 60.8 °F - 30.2 °F 31% 30.12 in 10.0 mi ESE 11.5 mph - N/A   Clear
11:35 AM 62.6 °F - 33.8 °F 34% 30.12 in 10.0 mi SE 5.8 mph - N/A   Clear
11:55 AM 62.6 °F - 30.2 °F 30% 30.11 in 10.0 mi East 8.1 mph - N/A   Clear
12:15 PM 64.4 °F - 30.2 °F 28% 30.10 in 10.0 mi ESE 9.2 mph - N/A   Clear
12:35 PM 64.4 °F - 30.2 °F 28% 30.09 in 10.0 mi East 12.7 mph - N/A   Clear
12:55 PM 64.4 °F - 30.2 °F 28% 30.08 in 10.0 mi East 11.5 mph - N/A   Clear
1:15 PM 66.2 °F - 33.8 °F 30% 30.07 in 10.0 mi ESE 10.4 mph - N/A   Clear
1:35 PM 66.2 °F - 30.2 °F 26% 30.06 in 10.0 mi East 12.7 mph - N/A   Clear
1:55 PM 66.2 °F - 32.0 °F 28% 30.05 in 10.0 mi East 12.7 mph - N/A   Clear
2:15 PM 69.8 °F - 28.4 °F 21% 30.06 in 10.0 mi East 9.2 mph - N/A   Clear
2:35 PM 68.0 °F - 28.4 °F 23% 30.05 in 10.0 mi East 9.2 mph - N/A   Clear
2:55 PM 66.2 °F - 28.4 °F 24% 30.04 in 10.0 mi East 12.7 mph - N/A   Clear
3:15 PM 66.2 °F - 28.4 °F 24% 30.04 in 10.0 mi East 15.0 mph - N/A   Clear
3:35 PM 64.4 °F - 28.4 °F 26% 30.04 in 10.0 mi East 11.5 mph 17.3 mph N/A   Clear
3:55 PM 64.4 °F - 28.4 °F 26% 30.04 in 10.0 mi East 15.0 mph - N/A   Clear
4:15 PM 62.6 °F - 28.4 °F 27% 30.03 in 10.0 mi East 18.4 mph - N/A   Clear
4:35 PM 60.8 °F - 28.4 °F 29% 30.03 in 10.0 mi East 15.0 mph - N/A   Clear
4:55 PM 60.8 °F - 28.4 °F 29% 30.03 in 10.0 mi East 12.7 mph - N/A   Clear
5:15 PM 59.0 °F - 28.4 °F 31% 30.02 in 10.0 mi East 8.1 mph - N/A   Clear
5:35 PM 57.2 °F - 30.2 °F 36% 30.03 in 10.0 mi ESE 3.5 mph - N/A   Clear
5:55 PM 57.2 °F - 30.2 °F 36% 30.03 in 10.0 mi ESE 13.8 mph - N/A   Clear
6:15 PM 57.2 °F - 30.2 °F 36% 30.03 in 10.0 mi ESE 15.0 mph 18.4 mph N/A   Clear
6:35 PM 55.4 °F - 30.2 °F 38% 30.03 in 10.0 mi ESE 15.0 mph 21.9 mph N/A   Clear
6:55 PM 50.0 °F - 33.8 °F 54% 30.05 in 10.0 mi ESE 9.2 mph - N/A   Clear
7:15 PM 51.8 °F - 32.0 °F 47% 30.05 in 10.0 mi East 13.8 mph - N/A   Clear
7:35 PM 53.6 °F - 30.2 °F 41% 30.05 in 10.0 mi East 13.8 mph - N/A   Clear
7:55 PM 51.8 °F - 33.8 °F 50% 30.06 in 10.0 mi ESE 9.2 mph - N/A   Clear
8:15 PM 51.8 °F - 33.8 °F 50% 30.05 in 10.0 mi ESE 10.4 mph - N/A   Clear
8:35 PM 46.4 °F 43.5 °F 33.8 °F 62% 30.06 in 10.0 mi SE 5.8 mph - N/A   Clear
8:55 PM 44.6 °F 40.2 °F 33.8 °F 66% 30.05 in 10.0 mi SSE 8.1 mph - N/A   Clear
9:15 PM 46.4 °F 43.5 °F 33.8 °F 62% 30.06 in 10.0 mi SE 5.8 mph - N/A   Clear
9:35 PM 46.4 °F 42.4 °F 33.8 °F 62% 30.05 in 10.0 mi SE 8.1 mph - N/A   Clear
9:55 PM 44.6 °F 40.7 °F 33.8 °F 66% 30.05 in 10.0 mi SE 6.9 mph - N/A   Clear
10:15 PM 46.4 °F 42.9 °F 35.6 °F 66% 30.06 in 10.0 mi ESE 6.9 mph - N/A   Clear
10:35 PM 44.6 °F 42.2 °F 35.6 °F 71% 30.06 in 10.0 mi SE 4.6 mph - N/A   Clear
10:55 PM 46.4 °F - 33.8 °F 62% 30.06 in 10.0 mi Calm Calm - N/A   Clear
11:15 PM 44.6 °F 41.4 °F 33.8 °F 66% 30.06 in 10.0 mi South 5.8 mph - N/A   Clear
11:35 PM 46.4 °F - 33.8 °F 62% 30.07 in 10.0 mi Calm Calm - N/A   Clear
11:55 PM 44.6 °F 40.7 °F 33.8 °F 66% 30.07 in 10.0 mi SSE 6.9 mph - N/A   Clear